User: anonymous   Login
Location: Allie Creek
(37.5926°N, 89.8526°W)
Time: 20:59:00
(UTC+00:00)
Language:

Meteor 1-11 Rocket - Orbit

View from above orbital plane
View from above orbital plane
View from above satellite
View from above satellite

Ground track
Ground track

The orbit data is extracted from the following two-line orbital elements,

1 05918U 72022B   24062.55421252  .00000057  00000-0  27156-4 0  9993
2 05918  81.2364 115.3057 0057023 281.0451  78.4308 14.06057025662036
Epoch (UTC): 02 March 2024 13:18:03
Eccentricity: 0.0057023
inclination: 81.2364°
perigee height: 831 km
apogee height: 914 km
right ascension of ascending node: 115.3057°
argument of perigee: 281.0451°
revolutions per day: 14.06057025
mean anomaly at epoch: 78.4308°
orbit number at epoch: 66203

The dashed part of the orbit path shows where the satellite is in the earth's shadow,  

DLR